Regional Weather Roundup
Issued by NWS

Home | Current Version | Previous Version | Text Only | Print | Product List | Glossary Off
Versions: 1 2 3 4 5 6 7 8 9 10 11 12 13 14 15 16 17 18 19 20 21 22 23 24 25 26 27 28 29 30 31 32 33 34 35 36 37 38 39 40 41 42 43 44 45 46 47 48 49 50

000
ASUS43 KLOT 122103
RWRIL

ILLINOIS REGIONAL WEATHER ROUNDUP
NATIONAL WEATHER SERVICE CHICAGO/ROMEOVILLE IL
300 PM CST TUE DEC 12 2017

NOTE: "FAIR" INDICATES FEW OR NO CLOUDS BELOW 12,000 FEET WITH NO
SIGNIFICANT WEATHER AND/OR OBSTRUCTIONS TO VISIBILITY.

* THESE STATIONS ARE NOT UNDER NWS QUALITY CONTROL. THEY ALSO MAY NOT
  REPORT WEATHER SUCH AS PRECIPITATION OR FOG.

ILZ001-002-007-009-015-016-024-122200-
NORTHWEST ILLINOIS

CITY           SKY/WX    TMP DP  RH WIND       PRES   REMARKS
MOLINE         SUNNY     29   2  31 W10       30.10F WCI  20
STERLING*      PTSUNNY   24  11  57 NW10      30.08F WCI  14
SAVANNA*       CLOUDY    23   7  51 NW10      30.09F WCI  12
$$

ILZ003-004-008-010-011-017-018-122200-
NORTH CENTRAL ILLINOIS

CITY           SKY/WX    TMP DP  RH WIND       PRES   REMARKS
ROCKFORD       PTSUNNY   20   6  55 W12       30.06F WCI   8
FREEPORT*      CLOUDY    20   9  61 W10       30.07F WCI   9
ROCHELLE*      CLOUDY    19  10  67 W13       30.07F WCI   6
DE KALB*       CLOUDY    19   9  64 W15       30.05F WCI   5
PERU*          PTSUNNY   22  10  60 NW15      30.08F WCI   9
$$

ILZ005-006-012>014-019>023-122200-
NORTHEAST ILLINOIS

CITY           SKY/WX    TMP DP  RH WIND       PRES   REMARKS
CHICAGO-OHARE  MOSUNNY   22   7  52 W13G22    30.03S WCI  10
CHICAGO-MIDWAY MOSUNNY   23   8  52 W16       30.04S WCI  10
AURORA         PTSUNNY   20  10  65 NW15G23   30.06S WCI   6
LANSING*       SUNNY     23  10  56 W12       30.04S WCI  12
WAUKEGAN       SUNNY     20   6  55 NW10G18   30.01F WCI   9
DUPAGE AIRPORT MOSUNNY   18   9  68 W12       30.04S WCI   5
WHEELING       MOSUNNY   23   7  50 W15       30.04F WCI  10
ROMEOVILLE*    MOSUNNY   19  11  70 W12G20    30.05F WCI   7
NORTHERLY ISL    N/A     23   8  52 W12         N/A  WCI  12
$$

LMZ740>746-122200-
SOUTHERN LAKE MICHIGAN

STATION/POSITION SKY/WX   TEMP    WIND        PRES    VSBY  WAVE
                          AIR SEA DIR/SP/G                  HT/PER
                          (F)     (DEG/KT/KT) (MB)    (MI)  (FT/S)
HARRISON CRIB              23     290/ 15/ 18   N/A
BURNHAM HARBOR             23     300/ 11/ 14   N/A
CALUMET HARBOR             22     290/ 11/ 16 1016.5F
BURNS HARBOR               22     320/ 13/ 19 1016.9F
MICHIGAN CITY              22     300/ 20/ 23   N/A
$$

ILZ025>027-034>036-040-047-049-050-058-095>099-122200-
WEST-CENTRAL ILLINOIS

CITY           SKY/WX    TMP DP  RH WIND       PRES   REMARKS
QUINCY         SUNNY     32   1  26 W13       30.13F WCI  22
MACOMB*        SUNNY     30   3  31 W15       30.14F WCI  19
PITTSFIELD*    SUNNY     33   0  25 W12       30.15S WCI  24
$$

ILZ028>032-037-038-041>044-048-051>054-059>061-122200-
CENTRAL ILLINOIS

CITY           SKY/WX    TMP DP  RH WIND       PRES   REMARKS
BLOOMINGTON    SUNNY     28   6  39 NW15      30.08S WCI  16
DECATUR        SUNNY     29   4  34 NW14      30.09F WCI  18
PEORIA         SUNNY     29   5  36 NW9G18    30.12S WCI  20
LACON*         SUNNY     28   5  38 W12       30.09F WCI  17
LINCOLN*       SUNNY     30   7  37 NW9G18    30.11S WCI  22
SPRINGFIELD    SUNNY     32   3  29 NW16      30.13S WCI  21
TAYLORVILLE    SUNNY     31   2  28 W16       30.11F WCI  20
$$

ILZ033-039-045-046-055>057-062-063-122200-
EAST-CENTRAL ILLINOIS

CITY           SKY/WX    TMP DP  RH WIND       PRES   REMARKS
CHAMPAIGN      SUNNY     29   2  31 W20       30.07F WCI  16
DANVILLE*      SUNNY     26   7  45 NW14      30.03F WCI  14
MATTOON        SUNNY     29   5  36 NW17      30.08S WCI  17
PARIS*         MOSUNNY   28   8  42 NW14G21   30.08S WCI  17
$$

ILZ079-100>102-122200-
SOUTHWEST ILLINOIS

CITY           SKY/WX    TMP DP  RH WIND       PRES   REMARKS
ALTON          MOSUNNY   34   7  32 NW13G25   30.15  WCI  25
BELLEVILLE     SUNNY     36   3  24 NW12G18   30.14S WCI  28
CAHOKIA*       CLOUDY    36   2  23 NW17      30.16S WCI  26
SPARTA*        SUNNY     35  10  36 NW10G17   30.15F WCI  27
$$

ILZ064>066-069>071-074>076-080>082-084>086-088>090-092>094-122200-
SOUTH-CENTRAL ILLINOIS

CITY           SKY/WX    TMP DP  RH WIND       PRES   REMARKS
CARBONDALE     MOSUNNY   36   7  29 NW16G23   30.14F WCI  26
CAIRO*         SUNNY     39  10  29 W12G21    30.15S WCI  32
EFFINGHAM*     MOSUNNY   32   9  37 W12G20    30.13S WCI  23
MARION         MOSUNNY   37   9  30 NW14      30.14F WCI  29
MT. VERNON     SUNNY     34   6  31 NW9       30.13F WCI  27
CENTRALIA*     SUNNY     34  10  36 NW14G23   30.13S WCI  25
SALEM*         SUNNY     35   5  28 NW10G20   30.13R WCI  27
METROPOLIS*    MOSUNNY   38  10  31 NW10G17   30.14S WCI  31
$$

ILZ067-068-072-073-078-083-087-091-122200-
SOUTHEAST ILLINOIS

CITY           SKY/WX    TMP DP  RH WIND       PRES   REMARKS
LAWRENCEVILLE  SUNNY     32  10  40 NW17      30.10F WCI  21
FLORA*         MOSUNNY   33   8  35 NW14G21   30.12S WCI  24
ROBINSON*      MOSUNNY   30   7  37 NW17G26   30.10S WCI  18
CARMI*         SUNNY     34   9  34 NW16G22   30.11F WCI  24
$$

ABBREVIATIONS USED IN REMARKS
   TC - TEMPERATURE IN CELSIUS
  WCI - WIND CHILL INDEX
   HX - HEAT INDEX
  VSB - VISIBILITY
$$




USA.gov is the U.S. government's official web portal to all federal, state and local government web resources and services.